Regional Weather Roundup
Issued by NWS

Home | Current Version | Previous Version | Graphics & Text | Print | Product List | Glossary On
Versions: 1 2 3 4 5 6 7 8 9 10 11 12 13 14 15 16 17 18 19 20 21 22 23 24 25 26 27 28 29 30 31 32 33 34 35 36 37 38 39 40 41 42 43 44 45 46 47 48 49 50
770
ASUS43 KFSD 291110
RWRSD

WEATHER ROUNDUP FOR SOUTH DAKOTA
NATIONAL WEATHER SERVICE SIOUX FALLS SD
600 AM CDT SAT APR 29 2017

NOTE: "FAIR" INDICATES FEW OR NO CLOUDS BELOW 12,000 FEET WITH NO
SIGNIFICANT WEATHER AND/OR OBSTRUCTIONS TO VISIBILITY.


SDZ001>005-009-010-012>017-291200-
NORTHWEST AND NORTH CENTRAL SOUTH DAKOTA

CITY           SKY/WX    TMP DP  RH WIND       PRES   REMARKS
BUFFALO          N/A     35  25  66 W5        30.16S
FAITH            N/A     37  18  46 W6        30.22R
MOBRIDGE       CLOUDY    26  22  84 N6        30.19F WCI  19
$$

SDZ012>016-024>037-041>051-057-063-072>074-291200-
SOUTHWEST AND SOUTH CENTRAL SOUTH DAKOTA

CITY           SKY/WX    TMP DP  RH WIND       PRES   REMARKS
RAPID CTY ARPT CLEAR     30  23  75 NW9       30.22R WCI  22
PIERRE         CLOUDY    28  21  75 NW7       30.20F WCI  21
CUSTER         CLOUDY    25  15  66 NE5       30.17R WCI  19
ELLSWORTH AFB  MOCLDY    28  23  80 NW6       30.21R WCI  22
PHILIP         CLOUDY    30  27  88 W7        30.22R WCI  23
PINE RIDGE     CLOUDY    33  29  85 CALM      30.18S
SPEARFISH      FAIR      30  23  74 W3        30.22S
WINNER         FAIR      32  23  69 N6        30.17R WCI  26
$$

SDZ004>011-016>023-039-040-291200-
NORTHEAST SOUTH DAKOTA

CITY           SKY/WX    TMP DP  RH WIND       PRES   REMARKS
ABERDEEN       CLOUDY    26  21  81 NW6       30.23F WCI  19
WATERTOWN      PTCLDY    24  19  81 N5        30.19F WCI  18
BROOKINGS      MOCLDY    32  22  66 NE3       30.20R
SISSETON         N/A     24  22  91 N7        30.21F WCI  16
$$

SDZ017-020-022-023-036>040-048>070-291200-
SOUTHEAST SOUTH DAKOTA

CITY           SKY/WX    TMP DP  RH WIND       PRES   REMARKS
SIOUX FALLS    MOCLDY    37  25  61 NE12      30.17S
HURON          PTCLDY    23  20  88 N5        30.19F WCI  17
CHAMBERLAIN    CLOUDY    36  23  58 NW7       30.18R
MITCHELL       CLOUDY    32  24  72 N8        30.18S WCI  25
YANKTON        CLOUDY    39  25  56 NE12      30.16R
$$

ABBREVIATIONS USED IN REMARKS
   TC - TEMPERATURE IN CELSIUS
  WCI - WIND CHILL INDEX
   HX - HEAT INDEX
  VSB - VISIBILITY





USA.gov is the U.S. government's official web portal to all federal, state and local government web resources and services.